Regional Weather Roundup
Issued by NWS

Home | Current Version | Previous Version | Graphics & Text | Print | Product List | Glossary On
Versions: 1 2 3 4 5 6 7 8 9 10 11 12 13 14 15 16 17 18 19 20 21 22 23 24 25 26 27
000
ASUS45 KCYS 161110
RWRWY

WYOMING REGIONAL WEATHER ROUNDUP
NATIONAL WEATHER SERVICE CHEYENNE WY
400 AM MST TUE JAN 16 2018

NOTE:  "FAIR" INDICATES FEW OR NO CLOUDS BELOW 12,000 FEET
WITH NO SIGNIFICANT WEATHER AND/OR OBSTRUCTIONS TO VISIBILITY.

WYZ001-161200-
YELLOWSTONE NATIONAL PARK

CITY           SKY/WX    TMP DP  RH WIND       PRES   REMARKS
LK YELLOWSTONE   N/A     -9 -13  83 NW3       30.37F
W YELLOWSTONE  NOT AVBL

$$
WYZ002>013-054>058-071-098>099-161200-
NORTHERN WYOMING

CITY           SKY/WX    TMP DP  RH WIND       PRES   REMARKS
JACKSON        FAIR      -4  -7  87 N7        30.42F WCI -18
CODY           FOG        6   4  91 CALM      30.36F VSB 1/4
GREYBULL       FAIR      -7 -11  83 CALM      30.47F
WORLAND        FAIR      -5  -8  87 CALM      30.44F
SHERIDAN       FAIR     -14 -19  79 CALM      30.39F
BUFFALO        FAIR      12  -8  40 S9        30.34F WCI   0
GILLETTE       FAIR       2  -6  69 SE9       30.42F WCI -13
HULETT         FAIR      -8 -13  77 MISG      30.45F
NEWCASTLE      FAIR      -9 -18  64 CALM      30.53F

$$
WYZ014>020-022>026-101>103-161200-
CENTRAL WYOMING

CITY           SKY/WX    TMP DP  RH WIND       PRES   REMARKS
BIG PINEY      CLOUDY    20  15  81 S3        30.40F
PINEDALE       CLOUDY    18  10  73 SW3       30.40F
DUBOIS         FAIR       9   3  78 NW15      30.33F WCI  -8
LANDER         CLOUDY    12   9  87 CALM      30.41S
RIVERTON       FAIR      12   6  77 S3        30.42F
CASPER         FAIR       8   0  69 SW12      30.42F WCI  -7
DOUGLAS        FAIR      -5 -10  79 CALM      30.47F

$$
WYZ021-027>030-104>119-161200-
SOUTHERN WYOMING

CITY           SKY/WX    TMP DP  RH WIND       PRES   REMARKS
EVANSTON       FAIR      15  12  88 E7        30.34F WCI   5
FORT BRIDGER   FAIR      10  10 100 E6        30.40S WCI   1
ROCK SPRINGS   FAIR      11   4  73 N3        30.40F
DIXON            N/A      5  -6  60 NE6       30.46F WCI  -6
RAWLINS        FAIR       0  -5  79 CALM      30.40F
LARAMIE        FAIR      -4 -10  75 S7        30.36F WCI -18
CHEYENNE       FAIR      -2  -8  76 W6        30.40S WCI -14
TORRINGTON     FAIR      -6 -10  83 E3        30.54F

$$




USA.gov is the U.S. government's official web portal to all federal, state and local government web resources and services.